�������l�o���
Date,Time,MP-1(��Sv/h),MP-2(��Sv/h),MP-3(��Sv/h),MP-4(��Sv/h),MP-5(��Sv/h),MP-6(��Sv/h),MP-7(��Sv/h),MP-8(��Sv/h),����,����(m/s),���J
2023/06/05,00:00,0.544,0.810,0.494,0.984,0.710,0.324,0.572,0.539,�쐼,7.0,��
2023/06/05,00:10,0.544,0.809,0.493,0.982,0.711,0.324,0.573,0.538,�쐼,5.3,��
2023/06/05,00:20,0.544,0.806,0.493,0.984,0.712,0.326,0.571,0.536,�쐼,3.5,��
2023/06/05,00:30,0.544,0.810,0.493,0.984,0.712,0.324,0.571,0.538,�쐼,2.9,��
2023/06/05,00:40,0.546,0.808,0.493,0.984,0.712,0.325,0.574,0.538,��쐼,3.1,��
2023/06/05,00:50,0.546,0.809,0.493,0.981,0.710,0.325,0.571,0.538,��쐼,1.5,��
2023/06/05,01:00,0.544,0.807,0.493,0.982,0.710,0.325,0.571,0.538,-,CALM,��
2023/06/05,01:10,0.544,0.807,0.492,0.982,0.711,0.325,0.573,0.537,��,1.2,��
2023/06/05,01:20,0.545,0.809,0.493,0.983,0.708,0.325,0.571,0.539,��,1.5,��
2023/06/05,01:30,0.545,0.808,0.492,0.981,0.712,0.325,0.572,0.538,��,1.5,��
2023/06/05,01:40,0.545,0.808,0.492,0.982,0.709,0.325,0.572,0.537,���k��,1.4,��
2023/06/05,01:50,0.545,0.809,0.494,0.984,0.711,0.326,0.572,0.537,�쐼,3.0,��
2023/06/05,02:00,0.545,0.809,0.493,0.981,0.710,0.325,0.572,0.538,�쐼,3.0,��
2023/06/05,02:10,0.545,0.807,0.492,0.984,0.710,0.325,0.573,0.537,�쐼,2.0,��
2023/06/05,02:20,0.545,0.806,0.492,0.984,0.710,0.326,0.572,0.538,��,2.3,��
2023/06/05,02:30,0.546,0.809,0.493,0.981,0.712,0.325,0.572,0.538,��쐼,3.3,��
2023/06/05,02:40,0.547,0.808,0.492,0.980,0.710,0.325,0.572,0.538,�쐼,2.9,��
2023/06/05,02:50,0.544,0.807,0.493,0.981,0.712,0.325,0.573,0.538,���쐼,2.9,��
2023/06/05,03:00,0.547,0.806,0.492,0.982,0.708,0.325,0.572,0.538,�k�k��,1.1,��
2023/06/05,03:10,0.546,0.809,0.492,0.981,0.711,0.325,0.572,0.537,�k�k��,1.2,��
2023/06/05,03:20,0.547,0.807,0.494,0.983,0.710,0.325,0.573,0.539,��쐼,1.7,��
2023/06/05,03:30,0.546,0.806,0.493,0.983,0.711,0.325,0.572,0.539,��쐼,2.2,��
2023/06/05,03:40,0.547,0.807,0.493,0.985,0.711,0.326,0.573,0.538,�쐼,3.3,��
2023/06/05,03:50,0.545,0.810,0.493,0.983,0.711,0.325,0.573,0.537,�쐼,5.7,��
2023/06/05,04:00,0.546,0.809,0.493,0.982,0.710,0.325,0.572,0.539,���쐼,5.0,��
2023/06/05,04:10,0.545,0.807,0.492,0.983,0.711,0.325,0.573,0.538,�쐼,4.5,��
2023/06/05,04:20,0.546,0.809,0.492,0.982,0.710,0.324,0.574,0.537,���쐼,5.2,��
2023/06/05,04:30,0.545,0.807,0.493,0.985,0.712,0.325,0.573,0.539,�쐼,4.6,��
2023/06/05,04:40,0.546,0.808,0.494,0.986,0.711,0.325,0.574,0.539,�쐼,5.5,��
2023/06/05,04:50,0.545,0.808,0.492,0.982,0.711,0.324,0.574,0.540,�쐼,6.2,��
2023/06/05,05:00,0.546,0.809,0.492,0.983,0.710,0.326,0.572,0.540,��쐼,7.1,��
2023/06/05,05:10,0.546,0.809,0.494,0.984,0.712,0.324,0.574,0.538,�쐼,5.9,��
2023/06/05,05:20,0.547,0.809,0.493,0.986,0.710,0.325,0.574,0.538,�쐼,7.3,��
2023/06/05,05:30,0.545,0.810,0.493,0.984,0.711,0.327,0.575,0.538,�쐼,6.3,��
2023/06/05,05:40,0.545,0.809,0.493,0.985,0.710,0.324,0.575,0.539,���쐼,5.1,��
2023/06/05,05:50,0.547,0.808,0.493,0.984,0.710,0.324,0.573,0.537,��,3.2,��
2023/06/05,06:00,0.545,0.807,0.493,0.984,0.711,0.324,0.575,0.537,���k��,2.2,��
2023/06/05,06:10,0.545,0.808,0.492,0.985,0.711,0.325,0.575,0.538,��,6.3,��
2023/06/05,06:20,0.546,0.806,0.491,0.984,0.711,0.326,0.573,0.539,��,6.4,��
2023/06/05,06:30,0.545,0.805,0.492,0.987,0.711,0.325,0.575,0.539,��,4.7,��
2023/06/05,06:40,0.546,0.805,0.492,0.985,0.710,0.325,0.573,0.538,���k��,4.4,��
2023/06/05,06:50,0.544,0.807,0.492,0.988,0.711,0.323,0.574,0.539,��,3.5,��
2023/06/05,07:00,0.544,0.806,0.492,0.985,0.709,0.325,0.574,0.539,��,3.3,��
2023/06/05,07:10,0.545,0.805,0.492,0.986,0.711,0.325,0.574,0.539,��,5.9,��
2023/06/05,07:20,0.544,0.806,0.492,0.985,0.712,0.325,0.572,0.539,��,7.2,��
2023/06/05,07:30,0.544,0.808,0.493,0.986,0.712,0.323,0.572,0.539,���쐼,7.0,��
2023/06/05,07:40,0.544,0.806,0.495,0.985,0.712,0.323,0.572,0.539,��,5.6,��
2023/06/05,07:50,0.546,0.807,0.494,0.984,0.713,0.324,0.572,0.538,��,5.8,��
2023/06/05,08:00,0.546,0.806,0.494,0.987,0.714,0.322,0.571,0.538,���k��,6.5,��
2023/06/05,08:10,0.545,0.806,0.494,0.986,0.712,0.323,0.573,0.537,��,7.0,��
2023/06/05,08:20,0.545,0.806,0.494,0.986,0.711,0.325,0.572,0.537,���쐼,5.7,��
2023/06/05,08:30,0.546,0.806,0.493,0.987,0.712,0.323,0.573,0.538,���쐼,7.4,��
2023/06/05,08:40,0.546,0.807,0.494,0.986,0.711,0.324,0.572,0.537,��,6.5,��
2023/06/05,08:50,0.545,0.807,0.495,0.985,0.713,0.323,0.571,0.537,���쐼,7.1,��
2023/06/05,09:00,0.543,0.808,0.496,0.986,0.712,0.325,0.573,0.537,��,6.2,��
2023/06/05,09:10,0.541,0.807,0.493,0.986,0.711,0.325,0.572,0.536,��,6.1,��
2023/06/05,09:20,0.542,0.809,0.495,0.987,0.711,0.325,0.571,0.538,���k��,6.6,��
2023/06/05,09:30,0.541,0.808,0.494,0.988,0.712,0.324,0.572,0.538,��,7.7,��
2023/06/05,09:40,0.547,0.808,0.495,0.986,0.711,0.325,0.571,0.539,��,9.2,��
2023/06/05,09:50,0.548,0.810,0.494,0.988,0.713,0.325,0.573,0.540,��,7.9,��
2023/06/05,10:00,0.548,0.810,0.493,0.985,0.712,0.324,0.572,0.539,��,7.7,��
2023/06/05,10:10,0.549,0.808,0.493,0.986,0.712,0.326,0.572,0.538,��,7.7,��
2023/06/05,10:20,0.547,0.810,0.493,0.987,0.706,0.324,0.571,0.538,���쐼,8.6,��
2023/06/05,10:30,0.550,0.812,0.493,0.987,0.708,0.325,0.572,0.539,���쐼,7.1,��
2023/06/05,10:40,0.548,0.813,0.495,0.990,0.715,0.324,0.572,0.539,���쐼,7.2,��
2023/06/05,10:50,0.551,0.810,0.495,0.989,0.713,0.324,0.574,0.539,��,8.8,��
2023/06/05,11:00,0.548,0.810,0.494,0.988,0.716,0.325,0.573,0.540,��,8.5,��
2023/06/05,11:10,0.549,0.811,0.493,0.988,0.714,0.326,0.572,0.539,��,8.0,��
2023/06/05,11:20,0.550,0.811,0.493,0.986,0.715,0.326,0.573,0.540,��,8.0,��
2023/06/05,11:30,0.551,0.813,0.494,0.986,0.715,0.325,0.573,0.540,��,10.5,��
2023/06/05,11:40,0.552,0.813,0.496,0.988,0.716,0.326,0.572,0.539,��,8.5,��
2023/06/05,11:50,0.550,0.811,0.494,0.990,0.716,0.326,0.574,0.540,��,7.6,��
2023/06/05,12:00,0.551,0.812,0.497,0.990,0.718,0.325,0.572,0.539,��,10.5,��
2023/06/05,12:10,0.551,0.811,0.495,0.989,0.719,0.326,0.575,0.539,��,8.5,��
2023/06/05,12:20,0.550,0.812,0.496,0.989,0.716,0.327,0.574,0.539,��,6.9,��
2023/06/05,12:30,0.550,0.812,0.495,0.989,0.718,0.326,0.573,0.540,���쐼,7.2,��
2023/06/05,12:40,0.552,0.812,0.496,0.990,0.718,0.327,0.572,0.538,��,7.0,��
2023/06/05,12:50,0.551,0.813,0.497,0.990,0.719,0.326,0.573,0.541,���쐼,7.1,��
2023/06/05,13:00,0.551,0.815,0.495,0.989,0.717,0.326,0.573,0.540,���쐼,7.8,��
2023/06/05,13:10,0.553,0.814,0.496,0.990,0.720,0.327,0.574,0.540,��,7.2,��
2023/06/05,13:20,0.552,0.813,0.495,0.991,0.718,0.325,0.574,0.541,���쐼,7.5,��
2023/06/05,13:30,0.550,0.815,0.496,0.993,0.719,0.324,0.573,0.541,��,6.0,��
2023/06/05,13:40,0.549,0.815,0.496,0.991,0.720,0.327,0.574,0.541,���쐼,6.1,��
2023/06/05,13:50,0.552,0.813,0.497,0.993,0.719,0.327,0.575,0.542,��,8.1,��
2023/06/05,14:00,0.551,0.811,0.495,0.990,0.720,0.327,0.575,0.541,���k��,7.1,��
2023/06/05,14:10,0.552,0.815,0.495,0.991,0.721,0.325,0.573,0.543,��,5.8,��
2023/06/05,14:20,0.553,0.814,0.497,0.994,0.722,0.328,0.574,0.541,��,7.3,��
2023/06/05,14:30,0.554,0.817,0.496,0.992,0.721,0.328,0.574,0.542,��,7.8,��
2023/06/05,14:40,0.552,0.818,0.497,0.993,0.720,0.328,0.575,0.541,���k��,6.5,��
2023/06/05,14:50,0.555,0.819,0.497,0.993,0.721,0.327,0.574,0.541,���k��,5.8,��
2023/06/05,15:00,0.556,0.818,0.497,0.993,0.722,0.327,0.574,0.542,��,4.5,��
2023/06/05,15:10,0.554,0.818,0.498,0.992,0.721,0.326,0.573,0.541,��,4.1,��
2023/06/05,15:20,0.555,0.816,0.498,0.995,0.721,0.327,0.572,0.541,���k��,5.0,��
2023/06/05,15:30,0.555,0.818,0.498,0.994,0.721,0.326,0.574,0.542,���k��,6.1,��
2023/06/05,15:40,0.556,0.819,0.498,0.994,0.721,0.326,0.574,0.541,��,7.2,��
2023/06/05,15:50,0.556,0.819,0.496,0.995,0.723,0.326,0.574,0.542,���k��,6.3,��
2023/06/05,16:00,0.555,0.821,0.495,0.996,0.724,0.326,0.574,0.542,���쐼,5.3,��
2023/06/05,16:10,0.556,0.818,0.496,0.994,0.723,0.326,0.574,0.540,��,5.8,��
2023/06/05,16:20,0.555,0.819,0.494,0.997,0.723,0.326,0.574,0.542,���k��,4.2,��
2023/06/05,16:30,0.555,0.818,0.497,0.994,0.723,0.326,0.573,0.542,�k,3.8,��
2023/06/05,16:40,0.553,0.819,0.496,0.996,0.721,0.327,0.574,0.542,�k,3.9,��
2023/06/05,16:50,0.553,0.820,0.494,0.995,0.724,0.327,0.573,0.540,�k�k��,4.2,��
2023/06/05,17:00,0.555,0.817,0.495,0.997,0.722,0.327,0.574,0.540,�k�k��,3.2,��
2023/06/05,17:10,0.553,0.819,0.496,0.997,0.721,0.326,0.573,0.541,�k��,2.3,��
2023/06/05,17:20,0.554,0.818,0.497,0.997,0.721,0.327,0.574,0.542,�k��,2.0,��
2023/06/05,17:30,0.552,0.816,0.496,0.996,0.720,0.326,0.574,0.539,��,1.7,��
2023/06/05,17:40,0.553,0.817,0.497,0.997,0.721,0.326,0.574,0.540,���k��,2.3,��
2023/06/05,17:50,0.552,0.816,0.496,1.001,0.721,0.329,0.574,0.539,�k��,1.5,��
2023/06/05,18:00,0.552,0.817,0.497,0.997,0.720,0.326,0.573,0.541,�k��,1.7,��
2023/06/05,18:10,0.553,0.817,0.495,0.996,0.721,0.326,0.572,0.540,���k��,1.4,��
2023/06/05,18:20,0.551,0.817,0.494,0.999,0.723,0.327,0.573,0.541,�k��,1.2,��
2023/06/05,18:30,0.550,0.817,0.496,0.996,0.724,0.326,0.572,0.540,-,CALM,��
2023/06/05,18:40,0.552,0.818,0.495,0.995,0.724,0.326,0.573,0.541,�k��,0.6,��
2023/06/05,18:50,0.550,0.819,0.494,0.997,0.723,0.327,0.572,0.540,���쐼,1.2,��
2023/06/05,19:00,0.553,0.818,0.495,0.997,0.724,0.328,0.572,0.541,���k��,1.2,��
2023/06/05,19:10,0.555,0.816,0.496,0.996,0.723,0.326,0.573,0.540,��,1.9,��
2023/06/05,19:20,0.555,0.820,0.497,0.995,0.723,0.328,0.572,0.540,��,2.3,��
2023/06/05,19:30,0.558,0.818,0.497,0.995,0.723,0.327,0.573,0.540,��,3.9,��
2023/06/05,19:40,0.557,0.819,0.497,0.997,0.724,0.327,0.574,0.540,���k��,4.5,��
2023/06/05,19:50,0.556,0.819,0.498,0.996,0.722,0.327,0.574,0.541,���k��,4.3,��
2023/06/05,20:00,0.556,0.820,0.499,0.998,0.724,0.329,0.574,0.541,�k��,4.6,��
2023/06/05,20:10,0.558,0.819,0.497,0.995,0.722,0.327,0.573,0.541,�k��,4.2,��
2023/06/05,20:20,0.558,0.818,0.497,0.998,0.725,0.326,0.575,0.540,�k��,2.6,��
2023/06/05,20:30,0.558,0.822,0.498,0.999,0.722,0.327,0.574,0.540,�k��,2.6,��
2023/06/05,20:40,0.556,0.818,0.497,0.996,0.724,0.327,0.574,0.541,���k��,3.3,��
2023/06/05,20:50,0.557,0.818,0.498,0.998,0.724,0.326,0.574,0.541,��,3.4,��
2023/06/05,21:00,0.556,0.819,0.497,0.998,0.723,0.326,0.575,0.541,���k��,3.4,��
2023/06/05,21:10,0.557,0.819,0.497,0.997,0.722,0.327,0.576,0.541,���쐼,1.7,��
2023/06/05,21:20,0.556,0.817,0.496,0.999,0.723,0.327,0.575,0.541,�쐼,2.3,��
2023/06/05,21:30,0.555,0.817,0.498,0.998,0.723,0.327,0.574,0.540,���쐼,1.7,��
2023/06/05,21:40,0.556,0.815,0.497,0.999,0.722,0.328,0.574,0.540,���쐼,2.0,��
2023/06/05,21:50,0.556,0.818,0.496,0.998,0.725,0.328,0.575,0.541,�쐼,2.0,��
2023/06/05,22:00,0.557,0.818,0.496,0.998,0.722,0.327,0.576,0.542,���쐼,1.7,��
2023/06/05,22:10,0.555,0.819,0.497,0.998,0.721,0.325,0.575,0.541,��,1.5,��
2023/06/05,22:20,0.557,0.819,0.497,1.000,0.723,0.327,0.576,0.541,���k��,1.2,��
2023/06/05,22:30,0.555,0.818,0.497,0.999,0.722,0.327,0.576,0.541,��,2.2,��
2023/06/05,22:40,0.556,0.817,0.496,0.999,0.723,0.327,0.574,0.540,��,2.0,��
2023/06/05,22:50,0.555,0.821,0.498,0.999,0.723,0.326,0.575,0.542,���쐼,1.7,��
2023/06/05,23:00,0.556,0.817,0.497,0.999,0.723,0.327,0.576,0.541,���쐼,1.7,��
2023/06/05,23:10,0.558,0.817,0.496,1.001,0.723,0.327,0.575,0.540,���쐼,2.2,��
2023/06/05,23:20,0.556,0.819,0.495,1.000,0.724,0.327,0.575,0.540,���쐼,2.6,��
2023/06/05,23:30,0.555,0.817,0.497,1.000,0.724,0.327,0.575,0.540,���쐼,3.9,��
2023/06/05,23:40,0.554,0.821,0.496,1.000,0.725,0.327,0.577,0.540,���쐼,3.7,��
2023/06/05,23:50,0.557,0.821,0.495,0.998,0.722,0.327,0.577,0.541,�쐼,3.2,��
